When you browse on this site, cookies collect data to enhance your experience and personalize the content and advertising you see.
Visit our Privacy Policy to learn more. By continuing to use the site, you agree to this use of cookies and data.
  • In Romania
  • List of Countries
  • For 7 days
  • Water Temperature
  • Weather Map
  • Weather Widgets
  • user-avatar
    Login

    Hourly Weather Zarytovo

    Today, 14 October, Monday

    Time Temperature Precipitation Wind Pressure Humidity
    00:00 +7°C° 0 mm 5 mps 743 mmHg 92%
    01:00 +7°C° 0 mm 5 mps 744 mmHg 93%
    02:00 +7°C° 0 mm 5 mps 744 mmHg 93%
    03:00 +7°C° 0 mm 4 mps 745 mmHg 94%
    04:00 +6°C° 0 mm 4 mps 745 mmHg 95%
    05:00 +6°C° 0 mm 4 mps 745 mmHg 95%
    06:00 +6°C° 0 mm 4 mps 745 mmHg 96%
    07:00 +6°C° 0 mm 4 mps 745 mmHg 94%
    08:00 +7°C° 0 mm 4 mps 746 mmHg 92%
    09:00 +7°C° 0 mm 4 mps 746 mmHg 90%
    10:00 +8°C° 0 mm 4 mps 746 mmHg 84%
    11:00 +11°C° 0 mm 4 mps 746 mmHg 79%
    12:00 +12°C° 0 mm 4 mps 746 mmHg 74%
    13:00 +12°C° 0 mm 4 mps 745 mmHg 74%
    14:00 +12°C° 0 mm 4 mps 745 mmHg 74%
    15:00 +13°C° 0 mm 4 mps 744 mmHg 75%
    16:00 +13°C° 0 mm 4 mps 743 mmHg 79%
    17:00 +13°C° 0 mm 5 mps 743 mmHg 84%
    18:00 +13°C° 0 mm 5 mps 742 mmHg 88%
    19:00 +14°C° 0 mm 6 mps 741 mmHg 86%
    20:00 +14°C° 0 mm 7 mps 741 mmHg 84%
    21:00 +15°C° 0 mm 7 mps 741 mmHg 81%
    22:00 +14°C° 0 mm 7 mps 740 mmHg 81%
    23:00 +14°C° 0 mm 7 mps 740 mmHg 82%

    Tomorrow, 15 October, Tuesday

    Time Temperature Precipitation Wind Pressure Humidity
    00:00 +12°C° 0 mm 7 mps 740 mmHg 82%
    01:00 +12°C° 0 mm 7 mps 740 mmHg 84%
    02:00 +13°C° 0 mm 6 mps 740 mmHg 86%
    03:00 +11°C° 0 mm 6 mps 740 mmHg 88%
    04:00 +11°C° 0 mm 6 mps 740 mmHg 88%
    05:00 +11°C° 0 mm 6 mps 741 mmHg 89%
    06:00 +11°C° 0 mm 6 mps 741 mmHg 89%
    07:00 +11°C° 0 mm 6 mps 741 mmHg 86%
    08:00 +11°C° 0 mm 6 mps 742 mmHg 83%
    09:00 +11°C° 0 mm 6 mps 743 mmHg 80%
    10:00 +11°C° 0 mm 6 mps 743 mmHg 76%
    11:00 +13°C° 0 mm 6 mps 744 mmHg 72%
    12:00 +13°C° 0 mm 5 mps 745 mmHg 68%
    13:00 +13°C° 0 mm 5 mps 745 mmHg 69%
    14:00 +12°C° 0 mm 5 mps 746 mmHg 70%
    15:00 +10°C° 0 mm 5 mps 747 mmHg 71%
    16:00 +9°C° 0 mm 5 mps 747 mmHg 73%
    17:00 +8°C° 0 mm 4 mps 747 mmHg 74%
    18:00 +8°C° 0 mm 3 mps 748 mmHg 75%
    19:00 +8°C° 0 mm 3 mps 748 mmHg 77%
    20:00 +7°C° 0 mm 3 mps 749 mmHg 78%
    21:00 +5°C° 0 mm 3 mps 750 mmHg 79%
    22:00 +5°C° 0 mm 2 mps 750 mmHg 82%
    23:00 +5°C° 0 mm 2 mps 750 mmHg 84%

    Day after tomorrow, 16 October, Wednesday

    Time Temperature Precipitation Wind Pressure Humidity
    00:00 +5°C° 0 mm 1 mps 751 mmHg 86%
    01:00 +4°C° 0 mm 2 mps 751 mmHg 87%
    02:00 +3°C° 0 mm 2 mps 751 mmHg 88%
    03:00 +3°C° 0 mm 2 mps 752 mmHg 89%
    04:00 +3°C° 0 mm 2 mps 752 mmHg 89%
    05:00 +2°C° 0 mm 2 mps 752 mmHg 89%
    06:00 +2°C° 0 mm 2 mps 752 mmHg 89%
    07:00 +2°C° 0 mm 2 mps 752 mmHg 85%
    08:00 +3°C° 0 mm 2 mps 753 mmHg 81%
    09:00 +4°C° 0 mm 2 mps 753 mmHg 76%
    10:00 +5°C° 0 mm 2 mps 753 mmHg 72%
    11:00 +5°C° 0 mm 3 mps 752 mmHg 67%
    12:00 +7°C° 0 mm 3 mps 752 mmHg 63%
    13:00 +7°C° 0 mm 3 mps 752 mmHg 62%
    14:00 +8°C° 0 mm 3 mps 752 mmHg 61%
    15:00 +7°C° 0 mm 4 mps 752 mmHg 60%
    16:00 +7°C° 0 mm 4 mps 751 mmHg 64%
    17:00 +7°C° 0 mm 3 mps 750 mmHg 68%
    18:00 +5°C° 0 mm 3 mps 750 mmHg 71%
    19:00 +6°C° 0 mm 4 mps 750 mmHg 71%
    20:00 +6°C° 0 mm 5 mps 749 mmHg 71%
    21:00 +5°C° 0 mm 6 mps 749 mmHg 72%
    22:00 +5°C° 0 mm 6 mps 749 mmHg 74%
    23:00 +7°C° 0 mm 6 mps 748 mmHg 77%

    17 October, Thursday

    Time Temperature Precipitation Wind Pressure Humidity
    00:00 +7°C° 0 mm 6 mps 748 mmHg 79%
    01:00 +7°C° 0 mm 6 mps 747 mmHg 81%
    02:00 +7°C° 0 mm 6 mps 747 mmHg 83%
    03:00 +7°C° 0 mm 5 mps 747 mmHg 84%
    04:00 +7°C° 0 mm 6 mps 746 mmHg 86%
    05:00 +7°C° 0 mm 6 mps 746 mmHg 87%
    06:00 +7°C° 0 mm 6 mps 746 mmHg 89%
    07:00 +7°C° 0 mm 6 mps 745 mmHg 88%
    08:00 +8°C° 0 mm 6 mps 745 mmHg 88%
    09:00 +8°C° 0 mm 6 mps 745 mmHg 87%
    10:00 +9°C° 0 mm 6 mps 745 mmHg 83%
    11:00 +11°C° 0 mm 6 mps 744 mmHg 80%
    12:00 +13°C° 0 mm 6 mps 744 mmHg 76%
    13:00 +13°C° 0 mm 6 mps 744 mmHg 76%
    14:00 +14°C° 0 mm 6 mps 744 mmHg 76%
    15:00 +14°C° 0 mm 5 mps 743 mmHg 76%
    16:00 +13°C° 0 mm 5 mps 743 mmHg 80%
    17:00 +13°C° 0 mm 4 mps 743 mmHg 84%
    18:00 +12°C° 0 mm 4 mps 743 mmHg 88%
    19:00 +11°C° 0 mm 3 mps 743 mmHg 90%
    20:00 +11°C° 0 mm 3 mps 744 mmHg 92%
    21:00 +10°C° 0 mm 3 mps 744 mmHg 93%
    22:00 +10°C° 0 mm 3 mps 744 mmHg 94%
    23:00 +9°C° 0 mm 3 mps 744 mmHg 94%

    18 October, Friday

    Time Temperature Precipitation Wind Pressure Humidity
    00:00 +9°C° 0 mm 3 mps 744 mmHg 94%
    01:00 +9°C° 0 mm 2 mps 744 mmHg 93%
    02:00 +8°C° 0 mm 2 mps 744 mmHg 93%
    03:00 +8°C° 0 mm 2 mps 745 mmHg 93%
    04:00 +8°C° 0 mm 3 mps 745 mmHg 93%
    05:00 +7°C° 0 mm 3 mps 746 mmHg 93%
    06:00 +6°C° 0 mm 4 mps 746 mmHg 93%
    07:00 +6°C° 0 mm 4 mps 747 mmHg 89%
    08:00 +5°C° 0 mm 4 mps 747 mmHg 85%
    09:00 +3°C° 0 mm 5 mps 748 mmHg 81%
    10:00 +5°C° 0 mm 4 mps 749 mmHg 77%
    11:00 +5°C° 0 mm 4 mps 749 mmHg 72%
    12:00 +5°C° 0 mm 4 mps 750 mmHg 67%
    13:00 +5°C° 0 mm 4 mps 750 mmHg 64%
    14:00 +5°C° 0 mm 3 mps 750 mmHg 61%
    15:00 +7°C° 0 mm 3 mps 750 mmHg 58%
    16:00 +5°C° 0 mm 3 mps 751 mmHg 62%
    17:00 +4°C° 0 mm 3 mps 751 mmHg 66%
    18:00 +2°C° 0 mm 3 mps 751 mmHg 71%
    19:00 +2°C° 0 mm 3 mps 752 mmHg 73%
    20:00 +2°C° 0 mm 2 mps 752 mmHg 76%
    21:00 +2°C° 0 mm 2 mps 752 mmHg 78%
    22:00 0°C° 0 mm 3 mps 752 mmHg 80%
    23:00 0°C° 0 mm 3 mps 753 mmHg 83%

    19 October, Saturday

    Time Temperature Precipitation Wind Pressure Humidity
    00:00 0°C° 0 mm 3 mps 753 mmHg 85%
    01:00 -1°C° 0 mm 3 mps 753 mmHg 86%
    02:00 -1°C° 0 mm 2 mps 753 mmHg 87%
    03:00 -2°C° 0 mm 2 mps 753 mmHg 88%
    04:00 -2°C° 0 mm 3 mps 753 mmHg 88%
    05:00 -2°C° 0 mm 3 mps 753 mmHg 88%
    06:00 -2°C° 0 mm 3 mps 753 mmHg 88%
    07:00 -1°C° 0 mm 3 mps 753 mmHg 84%
    08:00 0°C° 0 mm 3 mps 753 mmHg 80%
    09:00 0°C° 0 mm 4 mps 753 mmHg 76%
    10:00 +2°C° 0 mm 3 mps 753 mmHg 72%
    11:00 +3°C° 0 mm 3 mps 753 mmHg 68%
    12:00 +4°C° 0 mm 3 mps 754 mmHg 64%
    13:00 +4°C° 0 mm 3 mps 753 mmHg 65%
    14:00 +5°C° 0 mm 3 mps 753 mmHg 65%
    15:00 +5°C° 0 mm 3 mps 753 mmHg 65%
    16:00 +5°C° 0 mm 2 mps 753 mmHg 68%
    17:00 +5°C° 0 mm 2 mps 753 mmHg 70%
    18:00 +4°C° 0 mm 2 mps 753 mmHg 72%
    19:00 +4°C° 0 mm 2 mps 753 mmHg 72%
    20:00 +4°C° 0 mm 2 mps 753 mmHg 72%
    21:00 +4°C° 0 mm 2 mps 753 mmHg 73%
    22:00 +5°C° 0 mm 2 mps 753 mmHg 73%
    23:00 +5°C° 0 mm 2 mps 753 mmHg 73%
    Show more